Flag for Belgium Weather past 2 weeks in Liège, Belgium

Now
41 °F

Passing clouds.


Feels Like: 32 °F
Forecast: 38 / 46 °F
Wind: 17 mph from Southwest

Location: Bierset

Current Time: Dec 20, 2014 at 10:04:16 AM

Latest Report: Dec 20, 2014 at 9:20 AM


Visibility: N/A

Pressure: 30.21 "Hg

Humidity: 81%

Dew point: 36 °F

Location of LiègeLocation

Historic Weather in Liège — Graph

°F

Liège temperature yesterday

Maximum temperature yesterday: 52 °F (at 12:20 AM)
Minimum temperature yesterday: 39 °F (at 9:20 PM)
Average temperature yesterday: 47 °F

Past Weeks' High & Low Weather Summary

 TemperatureHumidityPressure
High54 °F (Dec 18, 3:50 PM)100% (Dec 5, 11:50 PM)30.39 "Hg (Dec 5, 11:50 PM)
Low32 °F (Dec 8, 5:20 PM)70% (Dec 7, 1:50 PM)29.45 "Hg (Dec 12, 2:20 PM)
Average40 °F89%29.98 "Hg
* Reported Dec 5 8:20 AM — Dec 20 8:50 AM, Liège, Weather by CustomWeather, © 2014

Note: Actual official high and low records may vary slightly from our data, if they occured in-between our weather recording intervals... More about our weather records

Advertising

Liège weather history for previous 24 hours

 ConditionsComfort  
Time TempWeatherWind HumidityBarometerVisibility
8:50 AM
Dec 20
41 °FPassing clouds.18 mph81%30.21 "HgN/A
8:20 AM39 °FPassing clouds.15 mph87%30.21 "HgN/A
7:50 AM39 °FClear.16 mph87%30.21 "Hg10 mi
7:20 AM39 °FClear.16 mph87%30.21 "Hg10 mi
6:50 AM37 °FClear.14 mph93%30.21 "Hg10 mi
6:20 AM37 °FClear.14 mph93%30.21 "Hg10 mi
5:50 AM37 °FClear.14 mph93%30.21 "Hg10 mi
5:20 AM39 °FClear.15 mph87%30.21 "Hg10 mi
4:50 AM37 °FClear.14 mph93%30.21 "Hg10 mi
4:20 AM39 °FClear.16 mph87%30.21 "Hg10 mi
3:50 AM37 °FClear.15 mph87%30.21 "Hg10 mi
3:20 AM37 °FClear.15 mph87%30.18 "Hg10 mi
2:50 AM37 °FClear.14 mph87%30.21 "Hg10 mi
2:20 AM39 °FClear.14 mph81%30.21 "Hg10 mi
1:50 AM37 °FClear.15 mph87%30.18 "Hg10 mi
1:20 AM39 °FClear.13 mph81%30.18 "Hg10 mi
12:50 AM39 °FClear.13 mph81%30.18 "Hg10 mi
12:20 AM39 °FClear.13 mph81%30.18 "Hg10 mi
11:50 PM
Dec 19
39 °FPassing clouds.13 mph81%30.18 "HgN/A
11:20 PM39 °FPassing clouds.13 mph87%30.18 "HgN/A
10:50 PM39 °FPassing clouds.14 mph87%30.15 "HgN/A
10:20 PM39 °FPassing clouds.13 mph87%30.15 "HgN/A
9:50 PM39 °FPassing clouds.12 mph87%30.15 "HgN/A
9:20 PM39 °FPassing clouds.12 mph87%30.12 "HgN/A
8:50 PM41 °FPassing clouds.9 mph81%30.12 "HgN/A
8:20 PM41 °FPassing clouds.10 mph87%30.09 "HgN/A
7:50 PM41 °FPassing clouds.10 mph87%30.09 "HgN/A
7:20 PM43 °FPassing clouds.9 mph87%30.09 "HgN/A
6:50 PM43 °FPassing clouds.7 mph87%30.07 "HgN/A
6:20 PM43 °FPassing clouds.7 mph87%30.04 "HgN/A
5:50 PM43 °FPassing clouds.6 mph87%30.04 "HgN/A
5:20 PM45 °FPassing clouds.8 mph81%30.01 "HgN/A
4:50 PM45 °FPassing clouds.9 mph87%30.01 "HgN/A
4:20 PM45 °FBroken clouds.5 mph93%29.98 "HgN/A
3:50 PM45 °FBroken clouds.6 mph93%29.98 "HgN/A
3:20 PM45 °FDrizzle. Broken clouds.7 mph93%29.95 "Hg3 mi
2:50 PM45 °FLight rain. Partly sunny.9 mph93%29.95 "HgN/A
2:20 PM46 °FLight rain. Broken clouds.13 mph93%29.95 "Hg6 mi
1:50 PM50 °FHeavy rain. Broken clouds.21 mph94%29.92 "Hg1 mi
1:20 PM50 °FLight rain. Broken clouds.21 mph94%29.89 "Hg4 mi
12:50 PM50 °FLight rain. Broken clouds.24 mph94%29.89 "HgN/A
12:20 PM50 °FLight rain. Broken clouds.24 mph94%29.89 "HgN/A
11:50 AM50 °FLight rain. Broken clouds.22 mph94%29.89 "Hg4 mi
11:20 AM50 °FLight rain. Broken clouds.23 mph94%29.89 "Hg2 mi
10:50 AM50 °FLight rain. Broken clouds.23 mph94%29.92 "Hg2 mi
10:20 AM50 °FLight rain. Partly sunny.21 mph94%29.89 "Hg4 mi
Weather by CustomWeather, © 2014

See weather overviewHow to use our weather pages